Location: ČR
(50.0000°N, 15.0000°E)
Time: 12:22:22
(UTC+00:00)

ISS - Pass Details

Date: 30 September 2021
Orbit: 417 x 423 km, 51.6° (Epoch: 16 October)

Event Time Altitude Azimuth Distance (km) Brightness Sun altitude
Rises 17:24:17 0° 284° (WNW) 2,364 2.2 -7.9°
Reaches altitude 10° 17:26:23 10° 285° (WNW) 1,500 0.7 -8.2°
Maximum altitude 17:29:45 80° 13° (NNE) 430 -3.7 -8.8°
Enters shadow 17:32:40 13° 100° (E) 1,314 -1.9 -9.2°
